Weather in Hurgada

Egypt     27°14′03″N   33°50′03″E
temp.,
°C
wind,
m/s
gust,
m/s
humid.,
%
clouds,
%
prec.,
mm/h
press.,
hPa
HPBL,
m
26 june, sun
sun2623:00+30nw1015320 0.0 1006365
02:00+28nw916360 0.0 1007382
05:00+25nnw57390 0.0 1008108
08:00+29nnw89310 0.0 1008685
11:00+32n99310 0.0 1008930
14:00+33n1011310 0.0 1006573
17:00+32n912340 0.0 1005438
20:00+31nw611200 0.0 1006135
27 june, mon
mon2723:00+31wnw814210 0.0 1006217
02:00+29nw813260 0.0 1007234
05:00+27nw55310 0.0 100774
08:00+32nnw910260 0.0 1008831
11:00+34n99300 0.0 1007823
14:00+35n910260 0.0 1006636
17:00+35n912230 0.0 1004590
20:00+32nw611230 0.0 1006150
28 june, tue
tue2823:00+31wnw611240 0.0 1005134
02:00+29nw1118390 0.0 1006401
05:00+27nw712390 0.0 1006224
08:00+32nnw78290 0.0 1006544
11:00+34n99280 0.0 1005869
14:00+34n1010280 0.0 1003460
17:00+34nnw1013210 0.0 1003545
20:00+31nw611270 0.0 1005158
29 june, wed
wed2923:00+30wnw68250 0.0 100588
02:00+30w55250 0.0 100539
05:00+27nw713420 0.0 1006215
08:00+33nnw78280 0.0 1006832
11:00+34nne88350 0.0 1005919
14:00+34nne77330 0.0 1003521
17:00+34n68260 0.0 1003420
20:00+31nw56270 0.0 100459
30 june, thu
thu3023:00+31wnw68230 0.0 100586
02:00+30w67261 0.0 100468
05:00+27wnw714400 0.0 1005190
08:00+34nw78260 0.0 1006995
11:00+35nne77300 0.0 10051042
14:00+35nne910290 0.0 1003530
17:00+35n811260 0.0 1003514
20:00+32nw510330 0.0 1004140